Location: Woodhurst
(52.3667°N, 0.0667°W)
Time: 21:56:33
(UTC+00:00)

Cosmos 1934 Rocket - Pass Details

Date: 19 May 2025
Orbit: 938 x 997 km, 83.0° (Epoch: 18 June)

Event Time Altitude Azimuth Distance (km) Brightness Sun altitude
Rises 23:07:34 0° 348° (NNW) 3,667 8.8 -16.9°
Reaches altitude 10° 23:10:05 10° 345° (NNW) 2,725 7.7 -16.9°
Maximum altitude 23:16:15 65° 266° (W) 1,072 4.2 -17.1°
Enters shadow 23:20:04 25° 191° (S) 1,887 5.0 -17.2°
